Regional Weather Roundup
Issued by NWS

Home | Current Version | Previous Version | Graphics & Text | Print | Product List | Glossary On
Versions: 1 2 3 4 5 6 7 8 9 10 11 12 13 14 15 16 17 18 19 20 21 22 23 24 25 26 27 28
000
ASUS45 KSLC 180810
RWRUT

UTAH REGIONAL WEATHER ROUNDUP
NATIONAL WEATHER SERVICE SALT LAKE CITY UT
100 AM MST SAT NOV 18 2017

UTZ001>011-023>025-180900-

NORTHERN UTAH

CITY           SKY/WX    TMP DP  RH WIND       PRES   REMARKS
BRIGHAM CITY   CLEAR     31  21  65 CALM      30.36R
HILL AFB       CLEAR     29  20  68 E5        30.35R WCI  24
LOGAN          CLEAR     28  22  78 S7        30.34R WCI  21
OGDEN          CLEAR     29  22  75 S5        30.35R WCI  24
SALT LAKE CITY PTCLDY    33  25  72 S5        30.36R WCI  29
TOOELE VALLEY  CLOUDY    32  27  80 S3        30.37S
WENDOVER       CLEAR     30  19  63 W8        30.38R WCI  22
HEBER CITY       N/A     25  18  74 E9        30.31R WCI  15
WEST JORDAN    CLOUDY    32  26  78 NW3       30.36S

$$

UTZ011>015-024>027-180900-

CENTRAL/NORTHEAST UTAH

CITY           SKY/WX    TMP DP  RH WIND       PRES   REMARKS
PROVO AIRPORT  PTCLDY    34  21  59 W8        30.37  WCI  27
MOAB/CANYONLAN CLEAR     35  13  40 W13       30.26R WCI  26
DELTA          CLEAR     21  21 100 CALM      30.37S
PRICE          MOCLDY    29  14  53 N12G18    30.27R WCI  19
ROOSEVELT      PTCLDY    27  14  59 W10       30.28R WCI  17
VERNAL         CLEAR     29   8  41 CALM      30.25R

$$

UTZ013>016-019>022-027-180900-

SOUTHERN UTAH

CITY           SKY/WX    TMP DP  RH WIND       PRES   REMARKS
BRYCE CANYON   CLOUDY    18  12  77 W6        30.29R WCI  10
CEDAR CITY     PTCLDY    24  21  88 N8        30.31R WCI  15
MILFORD        CLEAR     26  21  81 N8        30.35R WCI  18
ST GEORGE      MOSUNNY   48  14  25 NE20G25   30.26R
HANKSVILLE     PTCLDY    32  12  43 NW5       30.32R WCI  27
BLANDING         N/A     34  10  37 NW17G24   30.28R WCI  23

$$

REGIONAL REPORTS     COLORADO/ARIZONA

CITY           SKY/WX    TMP DP  RH WIND       PRES   REMARKS
CRAIG, CO      CLOUDY    22  15  75 CALM      30.23R
GRAND JUNCTION CLEAR     30  22  72 W10       30.25R WCI  21
RIFLE, CO      CLEAR     31  19  61 NW9       30.24R WCI  23
MONTROSE, CO   CLEAR     32  19  58 NW20G26   30.24R WCI  20
CORTEZ, CO     CLEAR     32  18  56 NW15      30.20R WCI  22
COLORADO CITY    N/A     30  23  74 CALM      30.29R
PAGE, AZ       CLEAR     43  18  36 SW8       30.25R
GRAND CANYON   CLEAR     34  29  82 CALM      30.22R
KINGMAN, AZ    CLEAR     52  18  26 N14       30.19R
FLAGSTAFF, AZ  CLEAR     34  32  92 VRB6      30.20R WCI  29

$$

REGIONAL REPORTS    NEVADA/IDAHO/WYOMING

CITY           SKY/WX    TMP DP  RH WIND       PRES   REMARKS
LAS VEGAS, NV  CLEAR     56  13  18 N17G35    30.25R
ELY, NY        CLOUDY    11   8  88 S10       30.36R WCI  -3
ELKO, NV       PTCLDY    22  18  85 SE3       30.38R
POCATELLO, ID  CLEAR     29  24  82 SW16      30.33R WCI  17
BURLEY, ID     CLEAR     30  21  69 SW12      30.33R WCI  20
FORT BRIDGER,    N/A     19  16  89 SW17      30.29R WCI   3
EVANSTON, WY   CLOUDY    14  12  92 SW10      30.28R WCI   1
ROCK SPRINGS,  CLEAR     18  14  84 W21       30.20R WCI   1

$$




USA.gov is the U.S. government's official web portal to all federal, state and local government web resources and services.